| time (UTC) | temp F | wind direction | speed knots | gust knots | rain 1hr in | rain 24hr in | rain mn in | humidity % | barometer mb |
| 20260507085254 | 49 | 252 | 3.5 | 14.8 | 0.00 | 0.00 | 0.00 | 72 | 1015.4 |
| 20260507084748 | 49 | 269 | 6.1 | 14.8 | 0.00 | 0.00 | 0.00 | 72 | 1015.3 |
| 20260507084242 | 49 | 260 | 3.5 | 14.8 | 0.00 | 0.00 | 0.00 | 73 | 1015.4 |
| 20260507083736 | 49 | 264 | 3.5 | 16.5 | 0.00 | 0.00 | 0.00 | 73 | 1015.4 |
| 20260507083230 | 49 | 270 | 6.1 | 16.5 | 0.00 | 0.00 | 0.00 | 73 | 1015.5 |
| 20260507082724 | 49 | 281 | 10.4 | 16.5 | 0.00 | 0.00 | 0.00 | 73 | 1015.5 |
| 20260507082218 | 49 | 280 | 9.6 | 16.5 | 0.00 | 0.00 | 0.00 | 73 | 1015.5 |
| 20260507081712 | 49 | 282 | 9.6 | 16.5 | 0.00 | 0.00 | 0.00 | 73 | 1015.6 |
| 20260507081206 | 49 | 278 | 7.8 | 16.5 | 0.00 | 0.00 | 0.00 | 73 | 1015.6 |
| 20260507080700 | 49 | 279 | 9.6 | 15.6 | 0.00 | 0.00 | 0.00 | 73 | 1015.6 |
| 20260507080154 | 49 | 274 | 7.0 | 15.6 | 0.00 | 0.00 | 0.00 | 73 | 1015.7 |
| 20260507075648 | 50 | 277 | 8.7 | 15.6 | 0.00 | 0.00 | 0.00 | 73 | 1015.6 |
| 20260507075142 | 50 | 278 | 10.4 | 15.6 | 0.00 | 0.00 | 0.00 | 73 | 1015.7 |
| 20260507074636 | 50 | 274 | 6.1 | 13.9 | 0.00 | 0.00 | 0.00 | 73 | 1015.7 |
| 20260507074130 | 50 | 278 | 8.7 | 14.8 | 0.00 | 0.00 | 0.00 | 73 | 1015.7 |
| 20260507073624 | 50 | 282 | 8.7 | 14.8 | 0.00 | 0.00 | 0.00 | 73 | 1015.9 |
| 20260507073118 | 50 | 280 | 8.7 | 13.0 | 0.00 | 0.00 | 0.00 | 73 | 1015.9 |
| 20260507072612 | 50 | 277 | 6.1 | 13.0 | 0.00 | 0.00 | 0.00 | 73 | 1015.9 |
| 20260507072106 | 50 | 285 | 7.8 | 13.0 | 0.00 | 0.00 | 0.00 | 73 | 1016.0 |
| 20260507071600 | 50 | 280 | 7.8 | 14.8 | 0.00 | 0.00 | 0.00 | 73 | 1016.0 |
| 20260507071054 | 50 | 288 | 8.7 | 14.8 | 0.00 | 0.00 | 0.00 | 73 | 1016.0 |
| 20260507070548 | 50 | 285 | 7.8 | 13.0 | 0.00 | 0.00 | 0.00 | 73 | 1016.0 |
| 20260507070042 | 50 | 281 | 6.1 | 13.0 | 0.00 | 0.00 | 0.00 | 74 | 1016.0 |
| 20260507065536 | 50 | 287 | 7.0 | 13.0 | 0.00 | 0.00 | 0.00 | 74 | 1015.9 |
| 20260507065030 | 50 | 285 | 5.2 | 12.2 | 0.00 | 0.00 | 0.00 | 74 | 1016.0 |
| 20260507064524 | 50 | 287 | 7.8 | 13.0 | 0.00 | 0.00 | 0.00 | 74 | 1015.9 |
| 20260507064018 | 50 | 288 | 7.0 | 13.0 | 0.00 | 0.00 | 0.00 | 74 | 1016.0 |
| 20260507063512 | 50 | 286 | 7.8 | 13.0 | 0.00 | 0.00 | 0.00 | 74 | 1016.0 |
| 20260507063006 | 50 | 287 | 4.3 | 13.9 | 0.00 | 0.00 | 0.00 | 74 | 1016.1 |
| 20260507062500 | 50 | 289 | 7.0 | 16.5 | 0.00 | 0.00 | 0.00 | 74 | 1016.2 |
| 20260507061954 | 50 | 288 | 7.0 | 16.5 | 0.00 | 0.00 | 0.00 | 74 | 1016.2 |
| 20260507061448 | 50 | 291 | 7.0 | 13.9 | 0.00 | 0.00 | 0.00 | 74 | 1016.2 |
| 20260507060942 | 50 | 290 | 7.8 | 11.3 | 0.00 | 0.00 | 0.00 | 74 | 1016.2 |
| 20260507060436 | 50 | 292 | 7.0 | 13.9 | 0.00 | 0.00 | 0.00 | 74 | 1016.2 |
| 20260507055930 | 50 | 284 | 7.0 | 15.6 | 0.00 | 0.00 | 0.00 | 74 | 1016.2 |
| 20260507055424 | 50 | 288 | 9.6 | 15.6 | 0.00 | 0.00 | 0.00 | 74 | 1016.2 |
| 20260507054918 | 50 | 286 | 8.7 | 14.8 | 0.00 | 0.00 | 0.00 | 74 | 1016.2 |
| 20260507054412 | 50 | 284 | 9.6 | 14.8 | 0.00 | 0.00 | 0.00 | 74 | 1016.3 |
| 20260507053906 | 50 | 290 | 10.4 | 16.5 | 0.00 | 0.00 | 0.00 | 74 | 1016.2 |
| 20260507053400 | 50 | 289 | 10.4 | 16.5 | 0.00 | 0.00 | 0.00 | 74 | 1016.1 |
| 20260507052854 | 50 | 292 | 8.7 | 16.5 | 0.00 | 0.00 | 0.00 | 74 | 1016.1 |
| 20260507052348 | 50 | 288 | 7.0 | 14.8 | 0.00 | 0.00 | 0.00 | 74 | 1016.0 |
| 20260507051842 | 50 | 291 | 4.3 | 13.0 | 0.00 | 0.00 | 0.00 | 74 | 1016.2 |
| 20260507051336 | 50 | 290 | 4.3 | 17.4 | 0.00 | 0.00 | 0.00 | 74 | 1016.1 |
| 20260507050830 | 50 | 291 | 10.4 | 18.2 | 0.00 | 0.00 | 0.00 | 74 | 1016.2 |
| 20260507050324 | 50 | 290 | 7.8 | 18.2 | 0.00 | 0.00 | 0.00 | 74 | 1016.2 |
| 20260507045818 | 50 | 293 | 7.8 | 17.4 | 0.00 | 0.00 | 0.00 | 74 | 1016.1 |
| 20260507045312 | 50 | 290 | 9.6 | 18.2 | 0.00 | 0.00 | 0.00 | 74 | 1016.1 |
| 20260507044806 | 50 | 292 | 10.4 | 19.1 | 0.00 | 0.00 | 0.00 | 74 | 1016.1 |
| 20260507044300 | 50 | 290 | 10.4 | 16.5 | 0.00 | 0.00 | 0.00 | 74 | 1016.0 |
| 20260507043754 | 50 | 285 | 9.6 | 16.5 | 0.00 | 0.00 | 0.00 | 74 | 1016.1 |
| 20260507043248 | 50 | 286 | 9.6 | 17.4 | 0.00 | 0.00 | 0.00 | 74 | 1016.2 |
| 20260507042742 | 50 | 289 | 12.2 | 20.0 | 0.00 | 0.00 | 0.00 | 74 | 1016.0 |
| 20260507042236 | 50 | 285 | 11.3 | 20.0 | 0.00 | 0.00 | 0.00 | 74 | 1016.0 |
| 20260507041730 | 50 | 283 | 7.8 | 18.2 | 0.00 | 0.00 | 0.00 | 74 | 1016.0 |
| 20260507041224 | 50 | 285 | 11.3 | 18.2 | 0.00 | 0.00 | 0.00 | 75 | 1015.9 |
| 20260507040718 | 50 | 289 | 13.0 | 18.2 | 0.00 | 0.00 | 0.00 | 75 | 1015.9 |
| 20260507040212 | 50 | 286 | 13.0 | 20.0 | 0.00 | 0.00 | 0.00 | 75 | 1015.8 |
| 20260507035706 | 50 | 285 | 11.3 | 20.0 | 0.00 | 0.00 | 0.00 | 75 | 1015.9 |
| 20260507035200 | 50 | 283 | 8.7 | 20.0 | 0.00 | 0.00 | 0.00 | 75 | 1015.9 |
| 20260507034654 | 50 | 282 | 8.7 | 20.0 | 0.00 | 0.00 | 0.00 | 75 | 1015.8 |
| 20260507034148 | 50 | 286 | 13.9 | 17.4 | 0.00 | 0.00 | 0.00 | 75 | 1015.7 |
| 20260507033642 | 50 | 286 | 13.0 | 18.2 | 0.00 | 0.00 | 0.00 | 75 | 1015.7 |
| 20260507033136 | 50 | 286 | 8.7 | 18.2 | 0.00 | 0.00 | 0.00 | 75 | 1015.8 |
| 20260507032630 | 50 | 284 | 9.6 | 17.4 | 0.00 | 0.00 | 0.00 | 75 | 1015.7 |
| 20260507032124 | 50 | 286 | 11.3 | 22.6 | 0.00 | 0.00 | 0.00 | 75 | 1015.7 |
| 20260507031618 | 50 | 284 | 13.9 | 21.7 | 0.00 | 0.00 | 0.00 | 75 | 1015.5 |
| 20260507031112 | 50 | 286 | 13.0 | 21.7 | 0.00 | 0.00 | 0.00 | 75 | 1015.5 |
| 20260507030606 | 50 | 285 | 13.0 | 20.0 | 0.00 | 0.00 | 0.00 | 75 | 1015.4 |
| 20260507030100 | 51 | 282 | 10.4 | 18.2 | 0.00 | 0.00 | 0.00 | 75 | 1015.5 |
| 20260507025554 | 51 | 284 | 12.2 | 19.1 | 0.00 | 0.00 | 0.00 | 75 | 1015.5 |
| 20260507025048 | 51 | 286 | 13.9 | 19.1 | 0.00 | 0.00 | 0.00 | 75 | 1015.5 |
| 20260507024542 | 50 | 287 | 13.9 | 16.5 | 0.00 | 0.00 | 0.00 | 76 | 1015.6 |
| 20260507024036 | 51 | 286 | 15.6 | 16.5 | 0.00 | 0.00 | 0.00 | 76 | 1015.4 |
| 20260507023530 | 51 | 283 | 9.6 | 16.5 | 0.00 | 0.00 | 0.00 | 76 | 1015.4 |
| 20260507023024 | 51 | 280 | 12.2 | 20.0 | 0.00 | 0.00 | 0.00 | 76 | 1015.4 |
| 20260507022518 | 51 | 283 | 11.3 | 20.0 | 0.00 | 0.00 | 0.00 | 76 | 1015.5 |
| 20260507022012 | 51 | 282 | 12.2 | 20.0 | 0.00 | 0.00 | 0.00 | 76 | 1015.4 |
| 20260507021506 | 51 | 280 | 13.0 | 20.0 | 0.00 | 0.00 | 0.00 | 76 | 1015.3 |
| 20260507021000 | 51 | 278 | 9.6 | 18.2 | 0.00 | 0.00 | 0.00 | 76 | 1015.3 |
| 20260507020454 | 51 | 281 | 10.4 | 18.2 | 0.00 | 0.00 | 0.00 | 76 | 1015.4 |
| 20260507015948 | 52 | 282 | 12.2 | 22.6 | 0.00 | 0.00 | 0.00 | 76 | 1015.3 |
| 20260507015442 | 52 | 284 | 8.7 | 22.6 | 0.00 | 0.00 | 0.00 | 76 | 1015.3 |
| 20260507014936 | 52 | 284 | 12.2 | 20.0 | 0.00 | 0.00 | 0.00 | 76 | 1015.4 |
| 20260507014430 | 52 | 283 | 11.3 | 20.9 | 0.00 | 0.00 | 0.00 | 76 | 1015.4 |
| 20260507013924 | 52 | 283 | 13.0 | 20.9 | 0.00 | 0.00 | 0.00 | 76 | 1015.3 |
| 20260507013418 | 52 | 281 | 10.4 | 22.6 | 0.00 | 0.00 | 0.00 | 76 | 1015.3 |
| 20260507012912 | 52 | 280 | 10.4 | 22.6 | 0.00 | 0.00 | 0.00 | 76 | 1015.3 |
| 20260507012406 | 52 | 283 | 12.2 | 20.0 | 0.00 | 0.00 | 0.00 | 76 | 1015.3 |
| 20260507011900 | 52 | 284 | 13.9 | 24.3 | 0.00 | 0.00 | 0.00 | 76 | 1015.3 |
| 20260507011354 | 52 | 281 | 13.0 | 24.3 | 0.00 | 0.00 | 0.00 | 76 | 1015.3 |
| 20260507010848 | 52 | 280 | 13.9 | 20.0 | 0.00 | 0.00 | 0.00 | 76 | 1015.3 |
| 20260507010342 | 53 | 279 | 10.4 | 22.6 | 0.00 | 0.00 | 0.00 | 76 | 1015.4 |
| 20260507005836 | 53 | 280 | 10.4 | 22.6 | 0.00 | 0.00 | 0.00 | 76 | 1015.4 |
| 20260507005330 | 53 | 281 | 10.4 | 19.1 | 0.00 | 0.00 | 0.00 | 76 | 1015.3 |
| 20260507004824 | 53 | 274 | 7.0 | 21.7 | 0.00 | 0.00 | 0.00 | 76 | 1015.4 |
| 20260507004318 | 53 | 280 | 10.4 | 21.7 | 0.00 | 0.00 | 0.00 | 76 | 1015.4 |
| 20260507003812 | 54 | 272 | 9.6 | 21.7 | 0.00 | 0.00 | 0.00 | 76 | 1015.4 |
| 20260507003306 | 54 | 272 | 7.8 | 26.9 | 0.00 | 0.00 | 0.00 | 76 | 1015.4 |
| 20260507002800 | 54 | 277 | 9.6 | 26.9 | 0.00 | 0.00 | 0.00 | 76 | 1015.2 |
| 20260507002254 | 54 | 273 | 10.4 | 20.0 | 0.00 | 0.00 | 0.00 | 76 | 1015.2 |
| 20260507001748 | 55 | 268 | 7.0 | 19.1 | 0.00 | 0.00 | 0.00 | 76 | 1015.2 |
| 20260507001242 | 55 | 265 | 6.1 | 23.5 | 0.00 | 0.00 | 0.00 | 76 | 1015.2 |
| 20260507000736 | 55 | 273 | 10.4 | 23.5 | 0.00 | 0.00 | 0.00 | 76 | 1015.0 |
| 20260507000230 | 55 | 274 | 9.6 | 19.1 | 0.00 | 0.00 | 0.00 | 76 | 1015.2 |
| 20260506235724 | 56 | 269 | 7.8 | 20.9 | 0.00 | 0.00 | 0.00 | 76 | 1015.2 |
| 20260506235218 | 56 | 270 | 7.8 | 20.9 | 0.00 | 0.00 | 0.00 | 76 | 1015.2 |
| 20260506234712 | 56 | 277 | 11.3 | 25.2 | 0.00 | 0.00 | 0.00 | 76 | 1015.2 |
| 20260506234206 | 56 | 279 | 12.2 | 25.2 | 0.00 | 0.00 | 0.00 | 76 | 1015.1 |
| 20260506233700 | 57 | 272 | 10.4 | 20.9 | 0.00 | 0.00 | 0.00 | 76 | 1015.2 |
| 20260506233154 | 57 | 267 | 7.8 | 20.9 | 0.00 | 0.00 | 0.00 | 76 | 1015.1 |
| 20260506232648 | 58 | 274 | 8.7 | 27.8 | 0.00 | 0.00 | 0.00 | 76 | 1015.1 |
| 20260506232142 | 59 | 267 | 6.1 | 27.8 | 0.00 | 0.00 | 0.00 | 76 | 1015.0 |
| 20260506231636 | 59 | 272 | 8.7 | 20.0 | 0.00 | 0.00 | 0.00 | 76 | 1015.2 |
| 20260506231130 | 59 | 268 | 7.0 | 20.0 | 0.00 | 0.00 | 0.00 | 76 | 1015.4 |
| 20260506230623 | 58 | 256 | 6.1 | 22.6 | 0.00 | 0.00 | 0.00 | 76 | 1015.1 |
| 20260506230117 | 58 | 268 | 8.7 | 22.6 | 0.00 | 0.00 | 0.00 | 76 | 1015.2 |
| 20260506225612 | 59 | 261 | 7.0 | 23.5 | 0.00 | 0.00 | 0.00 | 76 | 1015.2 |
| 20260506225105 | 59 | 266 | 8.7 | 23.5 | 0.00 | 0.00 | 0.00 | 76 | 1015.1 |
| 20260506224559 | 60 | 263 | 7.8 | 18.2 | 0.00 | 0.00 | 0.00 | 76 | 1015.3 |
| 20260506224053 | 60 | 260 | 6.1 | 21.7 | 0.00 | 0.00 | 0.00 | 76 | 1015.3 |
| 20260506223547 | 60 | 261 | 7.0 | 21.7 | 0.00 | 0.00 | 0.00 | 76 | 1015.4 |
| 20260506223041 | 59 | 258 | 6.1 | 21.7 | 0.00 | 0.00 | 0.00 | 76 | 1015.4 |
| 20260506222535 | 59 | 259 | 6.1 | 21.7 | 0.00 | 0.00 | 0.00 | 76 | 1015.4 |
| 20260506222030 | 59 | 268 | 8.7 | 24.3 | 0.00 | 0.00 | 0.00 | 76 | 1015.6 |
| 20260506221523 | 59 | 264 | 7.8 | 24.3 | 0.00 | 0.00 | 0.00 | 76 | 1015.6 |
| 20260506221017 | 60 | 267 | 9.6 | 20.0 | 0.00 | 0.00 | 0.00 | 76 | 1015.6 |
| 20260506220512 | 61 | 264 | 7.0 | 22.6 | 0.00 | 0.00 | 0.00 | 76 | 1015.7 |
| 20260506220006 | 60 | 262 | 8.7 | 22.6 | 0.00 | 0.00 | 0.00 | 76 | 1015.8 |
| 20260506215459 | 60 | 274 | 7.8 | 21.7 | 0.00 | 0.00 | 0.00 | 76 | 1015.9 |
| 20260506214953 | 61 | 256 | 5.2 | 25.2 | 0.00 | 0.00 | 0.00 | 76 | 1015.9 |
| 20260506214448 | 60 | 263 | 7.0 | 25.2 | 0.00 | 0.00 | 0.00 | 76 | 1016.1 |
| 20260506213942 | 60 | 257 | 7.8 | 19.1 | 0.00 | 0.00 | 0.00 | 76 | 1016.0 |
| 20260506213435 | 61 | 268 | 7.0 | 20.0 | 0.00 | 0.00 | 0.00 | 76 | 1016.0 |
| 20260506212929 | 61 | 266 | 7.0 | 20.9 | 0.00 | 0.00 | 0.00 | 76 | 1015.9 |
| 20260506212423 | 60 | 267 | 7.8 | 21.7 | 0.00 | 0.00 | 0.00 | 76 | 1015.9 |
| 20260506211917 | 61 | 257 | 6.1 | 21.7 | 0.00 | 0.00 | 0.00 | 76 | 1016.0 |
| 20260506211411 | 61 | 220 | 3.5 | 20.0 | 0.00 | 0.00 | 0.00 | 76 | 1015.9 |
| 20260506210905 | 61 | 233 | 3.5 | 21.7 | 0.00 | 0.00 | 0.00 | 76 | 1016.0 |
| 20260506210359 | 61 | 277 | 11.3 | 21.7 | 0.00 | 0.00 | 0.00 | 76 | 1015.9 |
| 20260506205853 | 60 | 248 | 5.2 | 20.0 | 0.00 | 0.00 | 0.00 | 76 | 1015.9 |
| 20260506205347 | 60 | 269 | 8.7 | 21.7 | 0.00 | 0.00 | 0.00 | 76 | 1015.8 |
| 20260506204841 | 61 | 265 | 7.0 | 21.7 | 0.00 | 0.00 | 0.00 | 76 | 1016.0 |
| 20260506204335 | 61 | 268 | 7.0 | 21.7 | 0.00 | 0.00 | 0.00 | 76 | 1016.0 |
| 20260506203829 | 60 | 257 | 5.2 | 21.7 | 0.00 | 0.00 | 0.00 | 76 | 1016.0 |
| 20260506203323 | 61 | 182 | 1.7 | 19.1 | 0.00 | 0.00 | 0.00 | 76 | 1016.0 |
| 20260506202817 | 60 | 217 | 3.5 | 18.2 | 0.00 | 0.00 | 0.00 | 76 | 1016.1 |
| 20260506202311 | 60 | 216 | 4.3 | 16.5 | 0.00 | 0.00 | 0.00 | 76 | 1016.1 |
| 20260506201805 | 60 | 255 | 4.3 | 16.5 | 0.00 | 0.00 | 0.00 | 76 | 1016.1 |
| 20260506201259 | 60 | 130 | 1.7 | 13.9 | 0.00 | 0.00 | 0.00 | 76 | 1016.0 |
| 20260506200753 | 61 | 158 | 1.7 | 13.9 | 0.00 | 0.00 | 0.00 | 76 | 1016.1 |
| 20260506200247 | 61 | 200 | 1.7 | 16.5 | 0.00 | 0.00 | 0.00 | 76 | 1016.2 |
| 20260506195741 | 60 | 240 | 2.6 | 16.5 | 0.00 | 0.00 | 0.00 | 76 | 1016.1 |
| 20260506195235 | 61 | 179 | 1.7 | 16.5 | 0.00 | 0.00 | 0.00 | 76 | 1016.1 |
| 20260506194730 | 61 | 252 | 4.3 | 16.5 | 0.00 | 0.00 | 0.00 | 76 | 1016.1 |
| 20260506194223 | 61 | 128 | 0.9 | 12.2 | 0.00 | 0.00 | 0.00 | 76 | 1016.2 |
| 20260506193717 | 61 | 245 | 3.5 | 12.2 | 0.00 | 0.00 | 0.00 | 76 | 1016.1 |
| 20260506193211 | 61 | 116 | 0.9 | 11.3 | 0.00 | 0.00 | 0.00 | 76 | 1016.1 |
| 20260506192705 | 60 | 198 | 1.7 | 14.8 | 0.00 | 0.00 | 0.00 | 76 | 1016.2 |
| 20260506192159 | 61 | 197 | 1.7 | 14.8 | 0.00 | 0.00 | 0.00 | 76 | 1016.2 |
| 20260506191653 | 62 | 172 | 1.7 | 14.8 | 0.00 | 0.00 | 0.00 | 76 | 1016.3 |
| 20260506191147 | 62 | 150 | 0.9 | 11.3 | 0.00 | 0.00 | 0.00 | 76 | 1016.3 |
| 20260506190641 | 62 | 161 | 1.7 | 13.9 | 0.00 | 0.00 | 0.00 | 76 | 1016.3 |
| 20260506190135 | 61 | 217 | 1.7 | 13.9 | 0.00 | 0.00 | 0.00 | 75 | 1016.4 |
| 20260506185629 | 62 | 239 | 1.7 | 12.2 | 0.00 | 0.00 | 0.00 | 75 | 1016.5 |
| 20260506185123 | 62 | 216 | 1.7 | 13.9 | 0.00 | 0.00 | 0.00 | 75 | 1016.4 |
| 20260506184617 | 62 | 244 | 2.6 | 15.6 | 0.00 | 0.00 | 0.00 | 75 | 1016.4 |
| 20260506184111 | 61 | 245 | 3.5 | 15.6 | 0.00 | 0.00 | 0.00 | 75 | 1016.6 |
| 20260506183605 | 62 | 262 | 4.3 | 14.8 | 0.00 | 0.00 | 0.00 | 75 | 1016.5 |
| 20260506183100 | 63 | 261 | 3.5 | 14.8 | 0.00 | 0.00 | 0.00 | 75 | 1016.6 |
| 20260506182553 | 62 | 270 | 5.2 | 14.8 | 0.00 | 0.00 | 0.00 | 75 | 1016.5 |
| 20260506182047 | 62 | 254 | 2.6 | 13.0 | 0.00 | 0.00 | 0.00 | 75 | 1016.6 |
| 20260506181541 | 63 | 277 | 5.2 | 13.0 | 0.00 | 0.00 | 0.00 | 75 | 1016.7 |
| 20260506181035 | 63 | 241 | 1.7 | 10.4 | 0.00 | 0.00 | 0.00 | 75 | 1016.7 |
| 20260506180529 | 63 | 274 | 4.3 | 10.4 | 0.00 | 0.00 | 0.00 | 75 | 1016.8 |
| 20260506180023 | 63 | 278 | 4.3 | 11.3 | 0.00 | 0.00 | 0.00 | 75 | 1016.8 |
| 20260506175517 | 64 | 278 | 3.5 | 9.6 | 0.00 | 0.00 | 0.00 | 75 | 1016.7 |
| 20260506175011 | 64 | 209 | 2.6 | 11.3 | 0.00 | 0.00 | 0.00 | 75 | 1016.8 |
| 20260506174505 | 64 | 266 | 4.3 | 11.3 | 0.00 | 0.00 | 0.00 | 75 | 1016.7 |
| 20260506173959 | 66 | 265 | 1.7 | 0.0 | 0.00 | 0.00 | 0.00 | 75 | 1016.8 |
| 20260506173453 | 64 | 280 | 1.7 | 0.0 | 0.00 | 0.00 | 0.00 | 75 | 1016.8 |
| 20260506172947 | 61 | 309 | 2.6 | 0.0 | 0.00 | 0.00 | 0.00 | 75 | 1016.7 |
| 20260506172441 | 62 | 313 | 4.3 | 0.0 | 0.00 | 0.00 | 0.00 | 75 | 1016.7 |
| 20260506171935 | 63 | 325 | 0.9 | 0.0 | 0.00 | 0.00 | 0.00 | 74 | 1016.7 |
| 20260506171429 | 63 | 278 | 2.6 | 12.2 | 0.00 | 0.00 | 0.00 | 74 | 1016.7 |
| 20260506170923 | 61 | 261 | 1.7 | 12.2 | 0.00 | 0.00 | 0.00 | 74 | 1016.7 |
| 20260506170417 | 60 | 277 | 5.2 | 12.2 | 0.00 | 0.00 | 0.00 | 74 | 1016.6 |
| 20260506165911 | 60 | 279 | 7.0 | 13.9 | 0.00 | 0.00 | 0.00 | 74 | 1016.6 |
| 20260506165405 | 59 | 283 | 4.3 | 13.9 | 0.00 | 0.00 | 0.00 | 74 | 1016.7 |
| 20260506164859 | 60 | 293 | 3.5 | 11.3 | 0.00 | 0.00 | 0.00 | 74 | 1016.6 |
| 20260506164353 | 60 | 279 | 4.3 | 12.2 | 0.00 | 0.00 | 0.00 | 74 | 1016.6 |
| 20260506163847 | 60 | 278 | 5.2 | 12.2 | 0.00 | 0.00 | 0.00 | 74 | 1016.5 |
| 20260506163341 | 60 | 272 | 2.6 | 13.0 | 0.00 | 0.00 | 0.00 | 74 | 1016.5 |
| 20260506162835 | 59 | 277 | 7.0 | 13.0 | 0.00 | 0.00 | 0.00 | 74 | 1016.5 |
| 20260506162329 | 60 | 277 | 3.5 | 0.0 | 0.00 | 0.00 | 0.00 | 74 | 1016.5 |
| 20260506161823 | 60 | 285 | 2.6 | 10.4 | 0.00 | 0.00 | 0.00 | 74 | 1016.5 |
| 20260506161317 | 59 | 277 | 3.5 | 10.4 | 0.00 | 0.00 | 0.00 | 74 | 1016.5 |
| 20260506160811 | 59 | 274 | 1.7 | 0.0 | 0.00 | 0.00 | 0.00 | 74 | 1016.5 |
| 20260506160305 | 58 | 291 | 2.6 | 10.4 | 0.00 | 0.00 | 0.00 | 74 | 1016.4 |
| 20260506155759 | 56 | 290 | 4.3 | 10.4 | 0.00 | 0.00 | 0.00 | 74 | 1016.5 |
| 20260506155253 | 56 | 309 | 2.6 | 12.2 | 0.00 | 0.00 | 0.00 | 74 | 1016.5 |
| 20260506154747 | 55 | 306 | 2.6 | 12.2 | 0.00 | 0.00 | 0.00 | 74 | 1016.4 |
| 20260506154241 | 56 | 289 | 5.2 | 9.6 | 0.00 | 0.00 | 0.00 | 73 | 1016.4 |
| 20260506153735 | 56 | 302 | 4.3 | 0.0 | 0.00 | 0.00 | 0.00 | 73 | 1016.4 |
| 20260506153229 | 56 | 302 | 1.7 | 0.0 | 0.00 | 0.00 | 0.00 | 73 | 1016.4 |
| 20260506152723 | 57 | 326 | 0.9 | 0.0 | 0.00 | 0.00 | 0.00 | 73 | 1016.5 |
| 20260506152217 | 56 | 319 | 0.9 | 0.0 | 0.00 | 0.00 | 0.00 | 73 | 1016.5 |
| 20260506151711 | 55 | 316 | 3.5 | 0.0 | 0.00 | 0.00 | 0.00 | 73 | 1016.4 |
| 20260506151205 | 55 | 311 | 3.5 | 0.0 | 0.00 | 0.00 | 0.00 | 73 | 1016.5 |
| 20260506150659 | 55 | 322 | 2.6 | 0.0 | 0.00 | 0.00 | 0.00 | 72 | 1016.5 |
| 20260506150153 | 55 | 313 | 0.9 | 0.0 | 0.00 | 0.00 | 0.00 | 72 | 1016.4 |
| 20260506145647 | 54 | 313 | 1.7 | 0.0 | 0.00 | 0.00 | 0.00 | 72 | 1016.4 |
| 20260506145141 | 54 | 327 | 2.6 | 0.0 | 0.00 | 0.00 | 0.00 | 72 | 1016.4 |
| 20260506144635 | 54 | 320 | 2.6 | 9.6 | 0.00 | 0.00 | 0.00 | 72 | 1016.4 |
| 20260506144129 | 53 | 317 | 4.3 | 9.6 | 0.00 | 0.00 | 0.00 | 72 | 1016.4 |
| 20260506143623 | 53 | 325 | 3.5 | 9.6 | 0.00 | 0.00 | 0.00 | 72 | 1016.4 |
| 20260506143117 | 52 | 325 | 3.5 | 9.6 | 0.00 | 0.00 | 0.00 | 72 | 1016.4 |
| 20260506142611 | 52 | 316 | 5.2 | 9.6 | 0.00 | 0.00 | 0.00 | 72 | 1016.3 |
| 20260506142105 | 52 | 319 | 5.2 | 9.6 | 0.00 | 0.00 | 0.00 | 72 | 1016.3 |
| 20260506141559 | 52 | 318 | 4.3 | 8.7 | 0.00 | 0.00 | 0.00 | 72 | 1016.3 |
| 20260506141053 | 52 | 320 | 3.5 | 0.0 | 0.00 | 0.00 | 0.00 | 71 | 1016.3 |
| 20260506140547 | 52 | 315 | 2.6 | 0.0 | 0.00 | 0.00 | 0.00 | 71 | 1016.1 |
| 20260506140041 | 51 | 306 | 2.6 | 0.0 | 0.00 | 0.00 | 0.00 | 71 | 1016.1 |
| 20260506135535 | 51 | 301 | 1.7 | 0.0 | 0.00 | 0.00 | 0.00 | 71 | 1016.0 |
| 20260506135029 | 50 | 298 | 3.5 | 0.0 | 0.00 | 0.00 | 0.00 | 71 | 1016.0 |
| 20260506134523 | 50 | 297 | 2.6 | 0.0 | 0.00 | 0.00 | 0.00 | 71 | 1015.9 |
| 20260506134017 | 50 | 310 | 2.6 | 0.0 | 0.00 | 0.00 | 0.00 | 71 | 1015.9 |
| 20260506133511 | 50 | 315 | 1.7 | 0.0 | 0.00 | 0.00 | 0.00 | 71 | 1015.8 |
| 20260506133005 | 49 | 322 | 3.5 | 0.0 | 0.00 | 0.00 | 0.00 | 71 | 1015.8 |
| 20260506132459 | 49 | 324 | 2.6 | 0.0 | 0.00 | 0.00 | 0.00 | 71 | 1015.7 |
| 20260506131953 | 49 | 322 | 2.6 | 0.0 | 0.00 | 0.00 | 0.00 | 71 | 1015.8 |
| 20260506131447 | 48 | 315 | 2.6 | 0.0 | 0.00 | 0.00 | 0.00 | 71 | 1015.7 |
| 20260506130941 | 48 | 294 | 0.9 | 0.0 | 0.00 | 0.00 | 0.00 | 71 | 1015.7 |
| 20260506130435 | 48 | 309 | 1.7 | 0.0 | 0.00 | 0.00 | 0.00 | 71 | 1015.7 |
| 20260506125929 | 48 | 313 | 2.6 | 0.0 | 0.00 | 0.00 | 0.00 | 71 | 1015.7 |
| 20260506125423 | 48 | 310 | 3.5 | 0.0 | 0.00 | 0.00 | 0.00 | 71 | 1015.7 |
| 20260506124917 | 48 | 300 | 3.5 | 0.0 | 0.00 | 0.00 | 0.00 | 71 | 1015.7 |
| 20260506124411 | 48 | 306 | 1.7 | 0.0 | 0.00 | 0.00 | 0.00 | 71 | 1015.8 |
| 20260506123905 | 48 | 297 | 3.5 | 0.0 | 0.00 | 0.00 | 0.00 | 71 | 1015.8 |
| 20260506123359 | 48 | 299 | 2.6 | 0.0 | 0.00 | 0.00 | 0.00 | 71 | 1015.8 |
| 20260506122853 | 47 | 305 | 1.7 | 0.0 | 0.00 | 0.00 | 0.00 | 71 | 1015.7 |
| 20260506122347 | 47 | 287 | 0.0 | 0.0 | 0.00 | 0.00 | 0.00 | 71 | 1015.7 |
| 20260506121841 | 48 | 319 | 1.7 | 0.0 | 0.00 | 0.00 | 0.00 | 71 | 1015.7 |
| 20260506121335 | 48 | 316 | 2.6 | 0.0 | 0.00 | 0.00 | 0.00 | 71 | 1015.7 |
| 20260506120829 | 48 | 321 | 1.7 | 0.0 | 0.00 | 0.00 | 0.00 | 72 | 1015.8 |
| 20260506120323 | 48 | 318 | 1.7 | 0.0 | 0.00 | 0.00 | 0.00 | 72 | 1015.8 |
| 20260506115817 | 48 | 314 | 1.7 | 0.0 | 0.00 | 0.00 | 0.00 | 72 | 1015.8 |
| 20260506115311 | 48 | 321 | 1.7 | 0.0 | 0.00 | 0.00 | 0.00 | 72 | 1015.7 |
| 20260506114805 | 48 | 314 | 2.6 | 0.0 | 0.00 | 0.00 | 0.00 | 72 | 1015.7 |
| 20260506114259 | 48 | 316 | 1.7 | 0.0 | 0.00 | 0.00 | 0.00 | 72 | 1015.7 |
| 20260506113753 | 48 | 314 | 1.7 | 0.0 | 0.00 | 0.00 | 0.00 | 72 | 1015.8 |
| 20260506113247 | 48 | 317 | 3.5 | 0.0 | 0.00 | 0.00 | 0.00 | 72 | 1015.7 |
| 20260506112741 | 48 | 317 | 2.6 | 0.0 | 0.00 | 0.00 | 0.00 | 72 | 1015.7 |
| 20260506112235 | 48 | 320 | 1.7 | 0.0 | 0.00 | 0.00 | 0.00 | 72 | 1015.7 |
| 20260506111729 | 48 | 322 | 1.7 | 0.0 | 0.00 | 0.00 | 0.00 | 72 | 1015.7 |
| 20260506111223 | 48 | 320 | 1.7 | 0.0 | 0.00 | 0.00 | 0.00 | 72 | 1015.7 |
| 20260506110717 | 48 | 315 | 0.9 | 0.0 | 0.00 | 0.00 | 0.00 | 72 | 1015.6 |
| 20260506110211 | 48 | 315 | 1.7 | 0.0 | 0.00 | 0.00 | 0.00 | 72 | 1015.6 |
| 20260506105705 | 48 | 319 | 1.7 | 0.0 | 0.00 | 0.00 | 0.00 | 72 | 1015.6 |
| 20260506105159 | 48 | 315 | 0.9 | 0.0 | 0.00 | 0.00 | 0.00 | 72 | 1015.7 |
| 20260506104653 | 48 | 316 | 1.7 | 0.0 | 0.00 | 0.00 | 0.00 | 72 | 1015.7 |
| 20260506104147 | 48 | 328 | 0.9 | 0.0 | 0.00 | 0.00 | 0.00 | 72 | 1015.6 |
| 20260506103641 | 48 | 292 | 0.9 | 0.0 | 0.00 | 0.00 | 0.00 | 72 | 1015.6 |
| 20260506103135 | 48 | 293 | 3.5 | 0.0 | 0.00 | 0.00 | 0.00 | 72 | 1015.6 |
| 20260506102629 | 48 | 286 | 4.3 | 0.0 | 0.00 | 0.00 | 0.00 | 72 | 1015.7 |
| 20260506102123 | 48 | 274 | 1.7 | 0.0 | 0.00 | 0.00 | 0.00 | 72 | 1015.7 |
| 20260506101617 | 48 | 189 | 0.0 | 0.0 | 0.00 | 0.00 | 0.00 | 72 | 1015.7 |
| 20260506101111 | 48 | 268 | 0.9 | 0.0 | 0.00 | 0.00 | 0.00 | 72 | 1015.6 |
| 20260506100605 | 48 | 269 | 3.5 | 9.6 | 0.00 | 0.00 | 0.00 | 72 | 1015.5 |
| 20260506100059 | 48 | 257 | 1.7 | 10.4 | 0.00 | 0.00 | 0.00 | 72 | 1015.6 |
| 20260506095553 | 49 | 254 | 2.6 | 12.2 | 0.00 | 0.00 | 0.00 | 72 | 1015.6 |
| 20260506095047 | 49 | 265 | 4.3 | 13.9 | 0.00 | 0.00 | 0.00 | 72 | 1015.6 |
| 20260506094541 | 49 | 275 | 9.6 | 14.8 | 0.00 | 0.00 | 0.00 | 72 | 1015.5 |
| 20260506094035 | 49 | 281 | 12.2 | 16.5 | 0.00 | 0.00 | 0.00 | 73 | 1015.5 |
| 20260506093529 | 49 | 281 | 12.2 | 16.5 | 0.00 | 0.00 | 0.00 | 73 | 1015.6 |
| 20260506093023 | 49 | 282 | 13.0 | 17.4 | 0.00 | 0.00 | 0.00 | 73 | 1015.5 |
| 20260506092517 | 49 | 278 | 9.6 | 17.4 | 0.00 | 0.00 | 0.00 | 73 | 1015.6 |
| 20260506092011 | 49 | 281 | 10.4 | 19.1 | 0.00 | 0.00 | 0.00 | 73 | 1015.6 |
| 20260506091505 | 49 | 285 | 10.4 | 19.1 | 0.00 | 0.00 | 0.00 | 73 | 1015.6 |
| 20260506090959 | 49 | 286 | 10.4 | 15.6 | 0.00 | 0.00 | 0.00 | 73 | 1015.6 |
| 20260506090453 | 49 | 290 | 7.0 | 15.6 | 0.00 | 0.00 | 0.00 | 73 | 1015.7 |
| 20260506085947 | 49 | 291 | 8.7 | 16.5 | 0.00 | 0.00 | 0.00 | 73 | 1015.7 |